Location: Roanoke
(37.2710°N, 79.9420°W)
Time: 11:00:39
(UTC-04:00)

Daily predictions for brighter satellites

Satellite Brightness Start Highest point End
(mag) Time Altitude Azimuth Time Altitude Azimuth Time Altitude Azimuth
USA 186 1.9 21:13:48 10° S 21:15:57 46° W 21:18:10 10° NNW
OAO 2 Rocket 4.3 21:12:54 10° SSW 21:17:25 29° SSE 21:21:57 10° E
Cosmos 1908 4.1 21:16:22 10° NNE 21:19:56 34° ENE 21:23:31 10° SE
Cosmos 1151 Rocket 3.8 21:19:54 10° NNE 21:23:52 35° ENE 21:27:52 10° SE
Cosmos 2266 Rocket 4.2 21:18:03 10° SSE 21:24:06 51° E 21:30:05 10° NNE
Cosmos 2292 4.2 21:22:30 10° N 21:25:31 72° E 21:28:56 10° SSE
Cosmos 1674 3.0 21:22:34 10° SSE 21:26:13 45° E 21:29:55 10° NNE
Cosmos 371 Rocket 3.9 21:23:11 10° NNW 21:27:55 57° WSW 21:32:35 10° S
ALOS 3.3 21:23:50 10° S 21:28:18 47° W 21:32:49 10° NNW
Cosmos 405 3.7 21:25:01 10° N 21:28:24 37° ENE 21:31:43 10° SSE
Cosmos 1553 Rocket 4.1 21:23:46 10° N 21:30:11 87° W 21:36:29 10° S
OE (NEXTSAT) 4.4 21:27:19 10° WNW 21:30:53 81° SW 21:34:05 13° SE
Cosmos 1680 Rocket 4.1 21:29:40 10° N 21:34:39 43° ENE 21:39:11 12° SE
H-2A R/B 4.0 21:32:35 10° S 21:35:34 20° SE 21:42:59 10° E
OTV 4 2.6 21:37:17 10° S 21:37:59 12° SSE 21:37:59 12° SSE
Cosmos 923 Rocket 4.1 21:34:07 10° N 21:39:17 62° ENE 21:44:04 12° SSE
Cosmos 1833 4.3 21:33:36 10° SSW 21:39:20 87° WNW 21:45:02 10° NNE
USA 229 DEB 4.2 21:32:52 10° SW 21:39:44 66° NW 21:46:42 10° NNE
USA 229 4.2 21:32:58 10° SW 21:39:50 66° NW 21:46:49 10° NNE
YAOGAN 6 4.3 21:38:15 12° ESE 21:40:26 20° ENE 21:43:07 10° NNE
Tiangong 1 1.2 21:37:35 10° SW 21:40:35 48° SSE 21:43:35 10° ENE
Cosmos 1300 4.4 21:38:14 10° NNE 21:40:55 18° ENE 21:42:49 13° ESE
Cosmos 2333 Rocket 4.3 21:42:30 10° NNE 21:45:00 13° NE 21:47:30 10° ENE
Cosmos 1939 Rocket 2.8 21:45:36 10° SSE 21:49:32 87° ENE 21:53:27 10° N
H-2A R/B 2.2 21:45:23 10° SSE 21:49:54 89° WSW 21:54:28 10° NNW
ATLAS CENTAUR R/B 4.0 21:49:22 10° WNW 21:51:35 14° WSW 21:53:43 10° SW
Cosmos 773 Rocket 4.1 21:46:44 10° NNW 21:51:57 77° WSW 21:57:03 11° S
Cosmos 1437 Rocket 3.1 21:50:03 10° NNW 21:53:50 62° W 21:57:38 10° S
MetOp-A 4.5 21:51:55 15° SE 21:56:11 51° ENE 22:01:22 10° N
SPOT 5 2.9 21:53:20 15° SSE 21:57:01 63° ENE 22:01:46 10° N
COSMOS 2428 3.5 21:52:12 10° N 21:57:30 39° ENE 22:01:17 18° ESE
NOSS 3-1 (A) 3.6 21:53:51 10° S 21:59:20 46° ESE 22:05:19 10° NE
PSLV R/B 3.2 22:00:36 24° SSE 22:02:15 59° ENE 22:05:16 10° N
ARGOS 4.0 21:59:31 17° ESE 22:02:54 34° ENE 22:07:43 10° N
Cosmos 2219 Rocket 3.7 22:01:14 10° N 22:05:36 23° ENE 22:08:52 14° E
Cosmos 304 Rocket 3.7 22:01:03 10° NNW 22:05:53 89° W 22:09:26 18° SSE
Nadezhda 2 Rocket 4.4 22:02:31 10° S 22:08:39 78° E 22:14:45 10° N
Cosmos 1437 4.0 22:15:33 10° SSW 22:18:41 42° W 22:21:49 10° N
Cosmos 2237 4.4 22:13:29 10° NNW 22:19:11 63° ENE 22:22:30 25° SE
Cosmos 1328 4.2 22:15:43 10° SSW 22:19:37 63° W 22:23:33 10° N
ATLAS 2AS CENTAUR R/B 3.7 22:18:20 21° SSE 22:21:47 30° ESE 22:28:19 10° NE
Cosmos 1726 2.6 22:18:42 10° N 22:22:20 43° E 22:23:25 34° ESE
Envisat 3.6 22:19:28 12° S 22:24:03 52° W 22:29:01 10° NNW
CZ-4C R/B 4.4 22:24:04 22° E 22:24:34 23° ENE 22:27:22 10° NNE
Cosmos 2219 3.7 22:22:24 10° SSW 22:28:06 65° WNW 22:33:50 10° NNE
Delta 2 Rocket 2.7 22:27:39 10° W 22:31:11 67° S 22:31:53 50° ESE
Cosmos 2237 Rocket 3.5 22:32:25 10° N 22:37:14 27° ENE 22:39:42 20° E
Cosmos 2333 4.3 22:31:51 10° NNW 22:37:33 66° ENE 22:40:15 32° SE
ATLAS 3B R/B 4.5 22:33:48 10° N 22:38:57 21° NE 22:43:52 10° E
Cosmos 1271 Rocket 3.1 22:35:49 10° N 22:39:31 44° E 22:40:05 41° ESE
Cosmos 2082 4.3 22:38:01 31° SE 22:39:36 37° ESE 22:44:49 10° NE
SL-23 DEB 3.6 22:35:09 10° NW 22:39:45 83° SW 22:40:32 52° SE
Cosmos 1703 3.4 22:41:15 47° SE 22:41:52 53° E 22:45:41 10° NNE
SL-14 R/B 3.3 22:40:06 28° SSW 22:42:06 76° W 22:46:06 10° N
Cosmos 1937 Rocket 3.4 22:41:23 25° S 22:44:25 68° ESE 22:49:36 10° NNE
Terra 2.7 22:43:25 29° E 22:44:40 33° ENE 22:48:56 10° N
Meteor 1-4 Rocket 2.7 22:41:22 10° N 22:45:04 57° E 22:45:29 53° ESE
Cosmos 2242 Rocket 3.6 22:41:01 10° N 22:45:28 64° E 22:46:44 44° SE
NOSS 3-1 (C) 3.9 22:40:11 10° SW 22:45:55 61° NW 22:52:19 10° NNE
Cosmos 2298 Rocket 4.3 22:40:48 10° SSW 22:46:05 70° WNW 22:51:25 10° NNE
Meteor 1-27 4.3 22:41:50 10° NNW 22:47:31 77° W 22:50:34 28° S
Iridium 2 3.8 22:47:14 50° ESE 22:47:31 51° E 22:51:16 10° NNE
Cosmos 2360 Rocket 3.4 22:43:33 10° NW 22:48:38 35° WSW 22:52:21 17° SSW
NOAA 11 4.1 22:47:19 33° SSE 22:49:52 88° E 22:55:22 10° NNW
Sich 1 3.2 22:48:46 26° SSW 22:51:10 70° W 22:55:34 10° N
Lacrosse 4 Rocket 4.1 22:50:51 10° NE 22:51:36 10° NE 22:52:23 10° ENE
CARTOSAT-1 4.2 22:51:07 36° E 22:51:49 39° ENE 22:55:51 10° N
Cosmos 1862 Rocket 4.5 22:48:20 10° NNE 22:52:14 32° ENE 22:52:33 31° E
USA 245 3.5 22:53:37 37° WNW 22:53:37 37° WNW 22:55:30 10° NNW
FALCON 9 R/B 4.0 22:23:09 10° W 22:54:20 79° S 23:00:30 17° E
Cosmos 1633 Rocket 3.3 22:52:39 28° SSW 22:54:52 67° W 22:59:14 10° N
Cosmos 990 Rocket 4.0 22:53:44 40° SSE 22:55:20 59° ESE 23:00:23 10° NNE
Cosmos 2058 4.5 22:52:03 11° SW 22:55:38 33° WNW 22:59:22 10° NNW
DELTA 2 R/B (1) 3.9 22:51:32 10° W 22:56:49 47° SSW 22:58:07 39° S
DELTA 2 DEB (DPAF) 4.1 22:58:33 52° SSE 22:59:37 77° ENE 23:04:06 10° N
Cosmos 1626 2.9 23:01:03 40° ENE 23:01:03 40° ENE 23:04:04 10° NNE
OAO 2 Rocket 3.4 22:56:37 10° WSW 23:01:51 60° S 23:03:20 43° ESE
COSMOS 2455 4.3 23:02:40 10° N 23:07:38 26° NE 23:10:13 19° E
SL-08 RB Rocket 3.9 23:06:50 44° SSW 23:08:03 63° W 23:12:30 10° NNW
H-2A R/B 2.1 23:08:02 47° SE 23:09:32 72° ENE 23:14:57 10° N
Cosmos 2227 Rocket 2.1 23:11:30 38° S 23:13:46 79° ESE 23:19:27 10° NNE
Tiangong 1 2.5 23:14:19 10° W 23:17:13 37° NNW 23:17:13 37° NNW
Cosmos 1241 Rocket 4.5 23:22:15 18° SW 23:26:58 79° WNW 23:33:15 10° NNE
IGS 5A 3.4 23:29:10 86° NW 23:29:10 86° NW 23:33:18 10° NNW
Cosmos 2333 Rocket 2.1 23:24:20 10° NNW 23:30:08 86° ENE 23:31:18 59° SSE
Cosmos 192 4.4 23:25:38 10° N 23:30:30 60° ENE 23:30:50 58° E
SL-16 R/B 3.2 23:25:39 10° N 23:30:44 33° ENE 23:32:01 30° E
SeaSat 1 4.1 23:29:32 20° ENE 23:30:49 22° NE 23:34:32 10° N
Cosmos 1125 Rocket 3.6 23:33:30 55° E 23:33:30 55° E 23:38:38 10° NNE
Cosmos 1455 2.7 23:35:35 10° NNW 23:38:49 56° NW 23:38:49 56° NW
SAR-Lupe-2 4.5 23:40:40 47° NW 23:40:40 47° NW 23:43:26 10° NNW
Nadezhda 1 Rocket 4.1 23:34:26 10° NNW 23:40:28 66° W 23:42:18 45° SSW
Cosmos 2297 Rocket 2.1 23:39:29 55° SSW 23:40:49 89° WNW 23:46:31 10° NNE
COSMOS 2428 4.2 23:36:52 10° NW 23:41:30 27° WSW 23:43:18 22° SW
Okean 1-7 4.5 23:42:34 10° NNE 23:45:28 27° NE 23:45:28 27° NE
Cosmos 2219 Rocket 2.7 23:44:25 10° NW 23:49:46 47° WSW 23:50:35 44° SW
Cosmos 1703 Rocket 4.1 23:48:59 10° N 23:52:36 52° NE 23:52:36 52° NE
